パンスターズ彗星

P/2019 T6 ( PanSTARRS )

English version
Home page
Updated on April 25, 2020

---------------------------------------------------------------------

・ プロフィール

発見日 2019年10月8日
発見光度 19.6等
発見者 Pan-STARRS 2 telescope (Haleakala)

・ 写真集

・ 軌道要素

Epoch 2019 Nov. 13.0 TT = JDT 2458800.5
T 2019 Nov. 7.76191 TT                                  Rudenko
q   2.0519341            (2000.0)            P               Q
n   0.07785687     Peri.  328.91087     +0.73773797     -0.60293584
a   5.4317290      Node    71.31080     +0.66631677     +0.57806020
e   0.6222319      Incl.   18.69716     +0.10846495     +0.54983160
P  12.7
From 174 observations 2019 Oct. 8-2020 Feb. 14, mean residual 0".5.

・ 光度変化

        m1 = 12.5 + 5 logΔ + 17.0 log r(t - 40)

---------------------------------------------------------------------

軌道要素はM.P.E.C. 2020-G91に掲載されたものです。
光度グラフはComet for Windowsで作成したものです。

---------------------------------------------------------------------

Copyright(C) Seiichi Yoshida (comet@aerith.net). All rights reserved.